Notices

What's New in latest Release from April 7th, 2021:

- Updated Glossary, including Speed of Maximum Gust, and Total Hourly Precipitation

- Updated national and regional climate services offices contacts and prices information

- Addition of station inventory lists for 1981-2010, 1971-2000, and 1961-1990 Normals.

If you haven't already, please take our survey and provide feedback about our website: https://eccc.sondage-survey.ca/f/LanguageSelection.aspx?s=442ca660-fcf1-47c0-95a9-59707d6fd709

Hourly Data Report for May 07, 2021

VICTORIA UNIVERSITY CS
BRITISH COLUMBIA
Current Station Operator: ECCC - MSC

48°27'25.200" N
123°18'16.600" W
60.10 m
1018598
71783
WYJ

Download Data

Hourly Data (May 2021)
Hourly Data Report for May 7, 2021
TIME
LST
Temp Definition
°C
Dew Point Definition
°C
Rel Hum Definition
%
Precip. Amount Definition
mm

Wind Dir Definition
10's deg

Wind Spd Definition
km/h
Visibility Definition
km
Stn Press Definition
kPa
Hmdx Definition


Wind Chill Definition


Weather Definition


00:00 8.2 4.7 79 0.0 25 6   101.19     LegendNANA
01:00 7.6 4.7 82 0.0 28 8   101.21     LegendNANA
02:00 7.4 4.2 80 0.0 28 8   101.20     LegendNANA
03:00 7.4 4.4 81 0.0 28 5   101.25     LegendNANA
04:00 7.0 4.1 81 0.0 25 8   101.32     LegendNANA
05:00 5.9 5.6 98 1.2 25 4   101.32     LegendNANA
06:00 6.3 5.9 97 0.0 25 4   101.36     LegendNANA
07:00 7.5 5.7 88 0.0 23 10   101.41     LegendNANA
08:00 8.6 5.4 81 0.0 23 9   101.41     LegendNANA
09:00 10.1 5.7 74 0.0 24 9   101.45     LegendNANA
10:00 12.4 6.7 68 0.0 24 11   101.49     LegendNANA
11:00 13.2 5.4 59 0.0 23 10   101.54     LegendNANA
12:00 14.0 4.8 54 0.0 24 10   101.55     LegendNANA
13:00 9.9 6.2 78 0.0 36 6   101.64     LegendNANA
14:00 9.2 7.9 91 1.8 21 2   101.68     LegendNANA
15:00 13.1 5.4 59 0.0 24 11   101.63     LegendNANA
16:00 13.6 1.7 45 0.0 24 12   101.65     LegendNANA
17:00 12.9 0.7 43 0.0 24 13   101.69     LegendNANA
18:00 11.5 1.4 50 0.0 24 12   101.71     LegendNANA
19:00 9.8 1.3 56 0.0 25 9   101.77     LegendNANA
20:00 8.4 2.3 65 0.0 25 8   101.83     LegendNANA
21:00 7.8 4.0 77 0.0 24 8   101.87     LegendNANA
22:00 7.5 4.3 80 0.0 25 8   101.88     LegendNANA
23:00 7.4 4.2 80 0.0 24 8   101.89     LegendNANA

Notes on Data Quality.

Legend

  • E = Estimated
  • M = Missing
  • NA = Not Available*
  • [empty] = Indicates an unobserved value
Date modified: